This is the latest recevied weather packets stored in our database for station/object WW3TRG. If no packets are shown the sender has not sent any weather packets the latest 10 day(s).
| Time | Temp. | Humidity | Pressure | Rain* | Wind** | Luminosity | Snow |
|---|---|---|---|---|---|---|---|
| 1777942081 | 13.89° C | 76% | 1008.6 hPa | 0 mm | - | 0 W/m² | - |
| 1777941777 | 13.89° C | 75% | 1008.5 hPa | 0 mm | - | 0 W/m² | - |
| 1777941475 | 13.89° C | 74% | 1008.8 hPa | 0 mm | - | 0 W/m² | - |
| 1777941172 | 14.44° C | 74% | 1008.7 hPa | 0 mm | - | 0 W/m² | - |
| 1777940868 | 14.44° C | 72% | 1008.5 hPa | 0 mm | - | 0 W/m² | - |
| 1777940565 | 15° C | 71% | 1008.5 hPa | 0 mm | - | 0 W/m² | - |
| 1777940263 | 15° C | 70% | 1008.4 hPa | 0 mm | - | 0 W/m² | - |
| 1777939961 | 15.56° C | 69% | 1008.3 hPa | 0 mm | - | 0 W/m² | - |
| 1777939657 | 15.56° C | 69% | 1008.4 hPa | 0 mm | - | 0 W/m² | - |
| 1777939355 | 16.11° C | 67% | 1008.2 hPa | 0 mm | - | 0 W/m² | - |
| 1777939051 | 16.11° C | 63% | 1008 hPa | 0 mm | - | 0 W/m² | - |
| 1777938748 | 16.11° C | 66% | 1008.1 hPa | 0 mm | - | 1 W/m² | - |
| 1777938445 | 17.22° C | 63% | 1008.2 hPa | 0 mm | - | 4 W/m² | - |
| 1777938142 | 17.22° C | 62% | 1008.1 hPa | 0 mm | - | 6 W/m² | - |
| 1777937838 | 17.78° C | 60% | 1008 hPa | 0 mm | - | 9 W/m² | - |
| 1777937534 | 18.33° C | 59% | 1007.9 hPa | 0 mm | - | 10 W/m² | - |
| 1777937232 | 18.33° C | 58% | 1008 hPa | 0 mm | - | 12 W/m² | - |
| 1777936928 | 18.33° C | 57% | 1007.9 hPa | 0 mm | - | 13 W/m² | - |
| 1777936625 | 18.89° C | 53% | 1008 hPa | 0 mm | - | 16 W/m² | - |
| 1777936321 | 18.89° C | 53% | 1007.4 hPa | 0 mm | - | 18 W/m² | - |
| 1777936017 | 19.44° C | 55% | 1007.4 hPa | 0 mm | - | 21 W/m² | - |
| 1777935716 | 20° C | 52% | 1007.5 hPa | 0 mm | - | 23 W/m² | - |
| 1777935415 | 20° C | 50% | 1007.7 hPa | 0 mm | - | 24 W/m² | - |
| 1777935110 | 20.56° C | 47% | 1007.6 hPa | 0 mm | - | 26 W/m² | - |
| 1777934808 | 20° C | 47% | 1007.5 hPa | 0 mm | - | 28 W/m² | - |
* Rain latest hour (hover to see other rain measurements)
** Current wind speed in m/s (hover to see current wind gust speed)